RH
80 81 82 82 83 85 88 90 91 92 93 94 92 92 94 93 91 88 83 82 82 80 79 77 76 76 76 76 78 82 86 91 95 99 101 101 98 92 84 77 74 76 85 96 101 101 103 103 101 100 101 102 103 100 99 98 94 85 75 66 59 56 57 56 53 51 51 52 53 54 56 57 59 63 65 66 65 64 62 61 60 60 58 57 55
80 81 81 81 82 84 87 89 90 90 92 94 94 95 96 95 92 88 83 83 83 81 80 80 80 80 79 80 83 87 93 97 100 101 101 98 93 85 78 76 79 86 94 100 102 102 103 103 101 100 101 102 102 100 100 100 95 85 77 72 70 69 69 67 62 57 53 52 54 56 58 60 61 63 66 67 66 66 64 62 60 58 55 54 52
81 82 82 82 84 87 90 91 91 92 96 99 99 98 98 96 92 86 83 82 82 80 81 83 83 84 84 87 91 95 98 101 101 100 96 91 84 77 76 80 87 95 100 103 103 102 101 101 101 100 101 101 101 101 103 102 96 89 84 80 76 73 72 70 65 58 53 53 55 59 62 64 64 64 65 66 65 64 63 60 58 56 54 52 50
86 86 86 87 89 91 93 95 96 99 103 103 102 101 99 95 89 84 81 80 79 80 83 85 87 89 92 95 97 99 101 102 100 95 88 81 76 76 82 89 96 100 102 103 102 101 100 101 101 101 101 101 101 101 101 98 93 88 83 79 76 74 73 71 67 62 59 58 59 62 64 64 65 65 65 64 62 61 60 59 58 57 54 51 48
87 87 88 89 92 94 97 100 102 104 106 104 103 102 99 93 87 83 81 81 82 85 89 92 94 96 98 100 100 102 103 102 95 87 80 75 76 83 91 98 101 101 101 100 101 100 98 98 99 100 99 99 99 99 98 95 91 87 84 81 78 77 75 73 72 70 66 63 63 63 63 63 64 63 62 60 59 58 57 57 55 52 49 46 43
84 85 89 92 96 100 102 104 105 105 105 104 103 101 96 90 86 85 86 88 90 93 96 98 99 100 102 102 103 104 103 96 87 79 76 78 85 93 98 100 101 100 101 101 101 100 98 98 99 99 98 98 99 100 99 96 91 86 83 81 81 81 80 79 78 74 69 65 63 62 61 62 61 60 59 58 56 54 52 51 49 46 44 41 38
90 93 97 100 102 103 104 104 103 103 103 103 102 99 93 89 89 90 92 92 93 95 98 100 101 103 104 104 105 104 97 87 80 78 82 89 96 100 100 100 101 102 102 101 100 100 99 98 96 94 95 96 99 99 96 91 86 82 82 84 86 86 84 81 77 72 69 65 63 61 60 59 58 56 54 53 51 49 48 46 44 43 41 37 33
99 100 103 105 105 103 102 101 101 100 102 103 100 95 90 90 91 91 92 92 93 96 99 101 103 103 105 106 104 98 88 82 82 87 94 99 100 100 100 101 101 101 99 100 100 98 95 92 91 92 94 96 95 93 89 86 84 84 86 88 89 86 82 78 74 71 68 65 62 60 57 54 52 50 49 49 47 47 47 44 40 38 35 30 26
101 101 101 102 101 100 99 98 98 99 100 99 94 89 87 87 87 88 89 90 93 97 100 102 104 104 106 104 98 91 87 89 94 98 101 101 101 100 100 100 100 99 99 100 98 95 94 94 96 97 95 92 89 87 85 85 86 86 88 88 86 82 78 74 71 68 65 61 57 55 52 48 45 44 44 42 40 39 38 35 32 29 27 24 21
100 100 101 100 100 100 98 97 98 99 97 93 90 87 86 87 87 87 89 91 95 99 101 103 105 105 103 99 94 93 96 99 101 101 101 101 101 101 100 100 100 100 100 99 98 98 100 100 97 93 89 86 85 84 85 86 87 86 86 85 82 77 73 69 65 62 59 55 52 49 45 40 37 36 34 32 31 30 28 27 25 24 22 20 16
100 100 101 101 102 101 100 100 100 99 96 93 91 89 89 88 88 88 90 93 97 100 102 103 103 102 99 98 99 100 102 102 102 101 101 100 100 100 100 100 100 100 100 100 101 100 97 92 88 85 83 83 84 85 86 87 87 85 82 79 75 70 66 62 58 55 53 50 46 42 37 34 32 32 30 29 27 26 25 24 23 21 19 15 12
100 100 101 102 102 101 100 100 99 96 94 91 89 87 86 85 85 88 91 96 99 101 101 101 101 101 101 101 102 102 101 101 101 100 100 100 100 100 100 100 100 100 102 101 97 91 86 83 83 82 83 84 85 86 86 85 82 79 75 70 66 62 59 56 54 52 49 44 40 36 34 34 34 32 29 27 26 25 24 23 20 17 14 11 11
97 96 96 97 97 96 95 94 93 90 88 86 85 84 84 85 88 92 95 98 100 100 101 101 101 102 101 101 101 101 101 100 100 100 100 100 100 100 99 100 101 101 98 93 88 83 81 81 82 83 84 84 84 83 80 77 74 70 66 62 58 55 53 52 52 50 46 42 39 37 38 37 35 31 27 25 25 24 21 19 16 13 11 11 12
90 89 90 91 91 90 89 88 87 86 86 87 88 90 93 95 98 99 100 101 101 101 101 101 100 101 100 100 101 101 100 100 100 100 100 100 100 100 99 99 100 99 94 88 84 83 83 83 82 82 82 81 78 76 73 70 67 64 60 56 53 51 51 52 51 49 46 43 42 41 41 38 33 28 25 23 21 19 17 15 13 12 11 12 14
86 87 87 87 86 86 86 86 87 89 90 93 96 99 101 102 102 102 103 103 102 101 101 101 101 101 101 101 101 100 99 100 100 100 100 100 100 100 99 98 97 95 92 90 88 86 85 83 81 78 76 73 70 67 65 64 62 58 55 52 51 51 52 52 52 50 49 47 45 43 39 34 29 25 21 19 17 16 17 15 12 11 12 15 16
85 84 84 84 85 86 87 88 89 91 94 96 97 97 97 97 99 102 103 102 101 101 101 102 101 101 100 100 100 100 100 100 100 100 100 99 100 102 103 100 94 89 86 85 84 82 80 77 74 71 68 65 63 62 61 60 57 53 51 50 50 51 52 52 53 52 51 48 44 39 34 29 26 21 17 17 18 18 17 14 12 13 15 17 17
85 84 85 85 85 85 85 86 86 87 86 85 84 85 88 94 99 102 102 101 102 101 101 101 100 100 100 100 100 100 100 100 100 100 99 100 103 104 102 96 89 84 80 78 76 74 72 69 66 63 59 57 57 58 58 55 52 49 48 49 50 50 49 50 51 49 46 42 38 34 30 27 22 18 17 20 21 19 15 12 13 16 18 20 20
88 86 84 81 79 80 81 80 79 77 75 76 80 87 94 99 101 101 101 101 101 101 100 100 100 100 100 100 100 100 100 100 100 100 101 103 104 101 96 90 84 80 77 75 72 68 65 62 59 56 52 50 51 52 53 52 49 47 47 47 47 45 44 45 44 41 39 36 33 32 29 24 19 17 20 25 24 19 14 13 16 19 21 23 23
89 86 83 80 79 79 78 77 76 73 75 84 94 99 101 101 100 100 101 101 100 100 100 100 100 100 99 100 100 100 100 100 100 100 103 105 102 97 92 87 82 79 76 72 68 65 61 57 53 50 47 46 47 48 50 51 49 46 45 44 42 40 40 40 38 37 36 35 34 32 27 20 18 21 27 29 24 17 14 16 19 22 25 26 26
93 91 88 85 83 81 78 73 66 65 79 94 100 99 99 100 100 100 100 100 100 100 100 100 100 100 100 100 100 100 100 100 100 102 105 105 101 96 91 86 81 78 74 69 65 61 56 52 48 46 46 46 48 49 50 50 49 46 44 42 40 38 37 36 35 34 34 34 34 29 20 17 22 28 32 31 25 18 16 20 24 26 28 30 30
81 79 78 77 78 79 77 68 59 66 88 102 101 98 99 100 100 100 100 100 100 100 99 100 100 100 100 100 100 100 100 99 101 105 106 103 98 93 88 83 79 75 70 65 60 55 51 48 46 46 47 48 49 49 49 48 48 46 44 42 39 36 34 33 32 32 33 33 30 22 17 23 31 33 33 30 25 21 20 23 28 31 32 34 34
61 59 60 62 68 74 75 73 74 84 99 104 101 99 100 100 99 100 100 100 100 100 100 100 100 100 100 100 100 99 100 101 105 107 105 100 95 90 85 80 75 70 64 60 56 52 49 47 47 49 50 50 50 50 49 48 48 46 43 39 35 32 31 30 30 30 31 29 22 17 22 31 36 34 31 27 23 23 24 27 31 35 37 38 38
50 53 58 65 75 83 88 91 96 99 100 100 100 100 100 100 100 100 100 100 100 100 100 100 100 100 100 100 100 101 103 104 105 106 103 99 94 88 83 77 71 66 61 57 53 51 50 50 51 52 52 51 51 51 50 50 48 44 40 36 32 29 28 27 27 27 27 24 18 19 30 38 39 37 32 26 23 24 28 32 35 38 41 43 43
58 64 73 83 90 96 99 101 102 101 99 99 100 100 99 100 100 100 100 100 100 99 100 101 100 100 100 99 101 104 104 102 101 101 100 96 92 87 81 75 69 64 60 57 55 53 53 52 52 52 52 53 54 53 51 49 45 40 36 32 29 26 24 23 23 23 23 20 17 24 36 43 42 37 30 25 26 29 32 36 39 42 45 47 48
85 86 91 96 99 100 100 100 100 100 100 100 100 100 100 100 100 100 100 100 100 100 101 100 99 99 100 100 101 103 101 98 97 96 94 92 89 84 79 74 70 66 63 60 59 58 56 54 52 51 51 52 53 53 50 45 40 36 33 29 25 22 20 20 20 20 19 18 21 31 42 50 50 44 36 32 32 34 37 41 46 49 51 51 51
99 97 98 99 100 100 100 100 100 100 100 100 100 100 100 100 100 101 100 100 101 101 100 100 99 99 99 99 99 100 100 98 98 95 91 88 86 83 79 74 72 69 67 65 64 62 59 56 54 52 51 51 51 49 46 42 37 34 29 25 20 18 17 17 17 17 18 22 30 40 49 56 57 54 51 47 45 45 47 51 55 58 60 60 58
100 100 100 100 100 100 100 100 100 100 100 100 100 100 100 100 100 101 100 100 100 100 100 100 100 98 97 97 98 100 101 100 98 94 90 88 86 83 80 77 75 73 70 68 67 65 62 59 56 54 53 52 50 47 43 40 36 31 25 21 18 17 18 19 19 21 25 32 41 50 57 61 62 62 62 60 59 58 60 63 67 70 73 73 68
100 100 100 100 100 100 100 100 100 100 100 100 100 100 100 100 100 100 100 100 100 100 100 100 98 95 95 97 98 98 99 99 97 94 91 91 89 86 83 82 80 77 75 74 73 70 66 63 60 57 55 53 50 47 43 40 36 30 24 21 20 22 24 27 30 34 39 45 51 57 63 67 70 71 72 71 70 70 71 76 81 86 89 90 83
100 99 100 100 100 100 100 100 100 100 100 100 100 100 100 100 100 100 100 99 99 100 100 98 97 95 94 95 95 92 92 95 95 92 90 90 90 88 86 86 85 84 83 82 79 75 71 67 64 60 57 55 51 48 44 41 37 34 32 32 34 37 41 45 50 55 61 66 70 76 81 86 88 90 90 89 88 87 87 89 93 98 103 104 100
102 101 100 100 100 100 100 100 100 100 100 100 100 100 99 99 100 101 101 101 99 99 98 98 98 97 95 95 94 91 91 94 95 94 95 96 94 90 89 89 91 92 93 91 85 80 76 72 68 64 61 57 53 50 47 44 42 44 49 56 63 71 78 83 86 90 93 96 97 98 99 100 100 99 100 100 100 100 101 100 99 101 104 106 106
102 102 100 100 100 100 100 100 100 100 100 100 100 101 100 99 98 99 99 100 101 101 101 101 100 98 94 93 92 92 91 90 90 94 99 102 101 96 93 93 95 97 98 96 91 86 82 77 73 69 65 61 58 55 53 52 52 56 63 72 81 88 93 97 99 100 101 102 103 104 104 104 103 102 101 101 99 99 100 100 98 97 97 98 100
100 101 100 100 100 99 99 100 100 100 100 100 100 101 100 100 99 97 95 96 98 99 100 99 98 96 93 90 88 87 85 84 85 89 93 97 98 96 94 97 101 102 101 98 93 89 86 81 77 74 69 67 68 71 75 77 79 82 84 89 94 97 97 96 96 94 93 92 91 91 92 93 94 95 97 98 98 98 97 97 96 95 93 91 91
100 100 99 100 100 100 100 101 102 102 101 100 100 100 100 100 100 99 99 98 98 98 99 98 96 95 94 93 92 89 88 88 91 93 94 95 95 93 94 99 103 103 101 99 97 93 88 84 81 77 73 72 75 83 91 96 99 101 102 102 104 104 103 102 101 99 98 97 94 91 89 87 86 85 86 88 89 90 91 91 92 92 91 89 87
100 99 100 100 101 101 102 103 103 102 101 100 100 100 101 101 101 102 104 104 103 102 101 99 97 96 95 95 94 92 92 94 97 98 97 95 92 91 95 100 100 98 97 98 97 95 92 89 86 81 78 79 86 93 99 100 99 99 100 100 101 102 103 104 105 104 103 103 102 101 100 99 98 95 94 92 89 87 87 86 86 86 85 83 83
100 100 100 100 100 100 101 101 101 100 100 100 101 101 101 101 100 99 99 100 101 103 104 103 102 101 101 100 99 98 98 100 100 100 100 98 94 93 97 98 96 96 97 96 95 95 94 93 90 85 84 91 100 106 106 104 101 100 99 97 96 97 99 101 104 105 105 105 105 104 104 105 105 105 105 103 101 99 97 94 93 90 88 85 83
100 100 100 100 100 100 101 101 101 101 102 102 101 100 99 97 95 95 95 95 97 99 102 104 104 103 102 102 101 99 99 100 100 100 101 101 98 97 98 99 99 99 100 99 98 96 94 92 91 90 91 96 103 105 104 100 98 97 96 94 94 96 98 100 101 101 101 101 100 100 101 102 103 104 105 106 107 107 107 105 103 101 98 94 90
100 99 100 102 103 103 103 101 100 98 97 96 94 93 93 92 91 90 90 91 92 95 99 104 105 104 104 105 105 103 102 103 102 102 102 102 102 101 100 100 99 99 101 101 101 99 98 96 95 95 96 98 98 97 94 91 89 89 91 92 93 94 95 95 96 96 96 96 96 95 95 96 96 97 97 97 98 98 99 98 97 96 94 90 86
101 102 103 104 103 102 99 96 93 90 89 87 86 85 84 84 83 84 84 86 88 90 90 90 89 85 84 85 86 86 88 91 96 98 99 100 100 99 97 96 95 95 96 96 96 98 101 102 100 99 100 99 96 93 92 90 90 91 93 93 93 94 93 94 95 96 97 97 98 97 95 92 91 89 86 84 82 81 80 79 77 76 74 71 68
103 101 99 98 96 94 91 89 87 85 84 83 81 80 79 79 79 78 76 71 66 60 54 49 45 42 40 40 42 44 48 55 64 72 78 81 83 83 84 83 82 82 84 87 93 99 102 101 100 101 100 98 94 92 91 90 90 91 93 94 96 96 97 97 96 96 95 93 91 88 84 80 76 72 68 64 60 57 55 53 51 48 46 44 42
98 95 93 91 89 87 84 82 81 81 80 80 79 77 75 70 64 55 46 38 31 26 23 21 21 21 21 21 22 24 26 29 34 41 49 56 60 60 59 60 63 71 80 89 94 96 97 98 101 104 103 99 96 95 93 93 93 94 96 97 97 96 95 93 89 84 79 73 67 61 56 50 46 42 39 37 35 34 33 32 31 30 29 29 29
97 95 91 87 84 82 80 78 78 77 77 75 71 64 54 44 34 25 20 17 16 16 16 16 16 16 16 17 18 20 22 25 29 31 34 38 42 45 51 59 69 79 87 90 90 91 94 99 102 103 101 100 101 102 101 101 101 99 97 94 91 86 80 72 62 54 47 41 37 34 32 31 31 30 30 30 30 30 30 30 30 30 30 30 30
95 90 86 83 80 78 78 78 77 74 68 59 49 37 28 20 16 14 15 15 15 14 13 14 14 15 16 17 19 21 23 26 28 31 34 39 49 60 70 77 82 85 86 89 92 97 101 101 101 102 103 104 105 105 102 100 98 93 85 77 67 56 47 39 34 31 31 31 31 32 32 32 33 33 33 33 32 32 32 32 32 32 33 32 31
87 85 83 81 79 78 77 75 70 60 48 36 27 20 15 13 14 15 15 15 13 12 12 13 15 16 18 20 23 27 31 35 41 48 55 62 69 75 79 82 84 88 93 97 101 103 103 103 104 106 106 102 99 96 92 87 79 67 55 45 37 32 30 30 31 32 34 34 35 36 35 35 36 35 34 33 32 31 31 31 30 29 30 29 28
83 82 81 80 79 77 72 63 51 38 29 21 16 13 13 14 16 18 17 15 14 14 16 19 23 27 32 37 42 47 52 57 62 67 70 74 78 82 86 92 97 102 106 107 107 106 106 105 103 100 94 89 86 80 71 59 48 37 32 30 31 33 34 35 36 36 36 36 37 37 36 36 34 33 31 29 27 26 26 25 25 26 25 25 25
83 82 81 81 78 70 57 43 33 25 19 15 12 12 14 17 19 20 20 20 22 26 30 35 40 45 50 55 59 62 65 69 73 77 82 88 93 98 102 106 108 111 112 110 108 106 102 97 92 87 83 76 67 55 43 35 31 31 33 35 37 37 38 38 37 37 37 36 35 33 32 30 28 27 26 25 25 25 25 24 24 25 24 24 25
83 82 81 78 69 54 41 32 25 19 15 12 12 14 16 18 20 22 24 26 30 35 39 44 49 54 59 63 68 74 79 84 90 95 99 101 103 104 106 108 109 110 109 106 103 98 93 88 84 79 69 57 44 35 32 33 35 37 38 39 39 39 39 39 38 37 35 32 30 28 27 27 27 27 26 26 25 25 25 25 25 25 24 25 25
83 82 78 68 54 40 32 26 20 15 13 12 13 15 17 19 20 23 25 28 33 38 44 49 55 62 68 76 82 87 92 94 96 97 97 97 99 102 105 107 107 106 104 102 98 93 88 83 75 64 50 40 35 35 38 41 41 41 41 41 41 41 40 38 36 33 30 28 28 27 27 28 28 28 27 26 26 26 26 26 26 26 25 26 27
84 81 71 56 42 34 29 23 17 14 13 13 13 15 17 18 20 23 27 32 38 44 49 56 63 71 78 84 89 90 90 90 89 90 91 95 98 101 104 104 104 103 101 98 93 88 82 74 61 48 39 37 39 42 44 44 43 44 44 44 43 42 40 36 32 30 29 30 30 31 31 30 29 29 28 28 27 28 28 28 28 28 29 29 30
83 76 62 46 36 32 27 20 16 14 13 13 14 16 17 18 21 26 32 37 42 48 53 60 67 75 81 85 86 85 83 82 83 85 89 94 98 101 102 102 101 100 96 92 88 84 75 61 47 39 39 42 45 46 46 46 46 47 48 47 45 42 37 32 30 30 32 33 33 33 33 32 31 30 30 30 31 32 33 33 33 34 34 35 36
80 69 53 41 35 31 24 18 16 15 13 13 14 15 17 20 25 30 36 41 45 50 55 61 69 77 82 83 80 77 76 76 78 81 86 91 96 98 100 100 99 96 93 90 86 79 64 49 41 41 44 46 48 48 49 50 51 51 50 49 45 40 35 32 33 34 36 37 38 37 36 35 34 34 34 35 35 36 36 37 38 39 40 41 42
77 64 48 38 34 30 23 18 17 15 14 14 15 16 18 23 28 34 39 44 47 50 55 61 70 78 83 83 79 76 74 74 75 78 82 87 92 95 96 96 96 94 92 89 83 69 53 43 42 45 47 49 51 53 53 55 56 55 53 50 46 40 36 35 37 40 41 42 43 42 40 39 39 39 40 40 41 42 44 45 47 49 51 53 56
Wind_Speed
65 66 67 68 68 68 69 69 69 70 70 70 70 69 69 69 69 69 69 69 70 71 71 72 73 73 74 75 75 76 77 77 78 78 79 78 78 78 79 79 79 78 77 77 76 75 74 74 73 72 72 73 73 72 72 72 72 72 72 72 73 74 75 75 74 73 73 74 75 76 77 78 79 80 81 81 82 83 83 83 83 84 84 85 85
67 68 69 70 70 71 72 72 72 72 72 72 72 72 71 71 71 71 70 71 72 72 73 74 75 75 76 76 76 77 77 78 78 79 78 78 78 78 79 79 78 77 76 75 74 73 73 72 71 71 71 71 71 71 71 72 72 72 73 73 74 75 76 76 76 74 74 75 76 77 77 78 79 81 82 82 82 83 83 83 84 84 84 84 85
69 70 71 72 73 73 74 74 74 74 74 74 74 73 72 72 72 72 72 72 73 74 75 75 76 76 77 77 77 77 77 77 78 78 78 78 78 78 78 77 76 74 74 72 72 71 71 70 70 70 70 70 70 71 71 72 73 73 74 74 75 75 76 77 77 76 75 76 77 77 77 78 79 79 80 80 81 82 82 82 82 82 82 83 83
70 71 72 73 74 75 75 76 76 75 75 75 74 73 73 72 73 73 73 74 75 75 76 76 77 77 77 77 77 77 77 77 77 77 77 77 78 77 76 75 73 72 71 70 70 69 69 68 68 68 69 69 70 71 71 72 73 74 74 74 75 75 76 77 77 77 77 76 76 77 77 77 77 78 78 79 79 79 80 80 80 80 81 82 82
73 74 75 75 76 77 77 77 77 76 76 75 74 73 72 72 73 73 74 74 75 75 76 76 77 77 77 77 77 77 77 76 76 77 77 77 77 75 74 72 71 70 69 68 68 68 68 67 67 68 69 69 70 71 72 73 73 74 74 74 75 76 77 77 77 77 77 75 75 76 76 75 75 76 77 77 78 78 79 79 80 80 81 82 83
76 77 77 77 78 78 79 78 78 76 76 75 73 72 72 72 73 73 74 74 74 74 75 75 76 76 76 76 76 76 75 76 76 76 76 76 74 73 71 70 69 68 67 67 67 67 67 67 67 68 68 69 70 71 72 73 73 74 74 75 76 76 76 77 77 77 76 75 74 74 74 74 74 75 76 78 78 78 79 80 80 81 82 83 83
77 78 78 79 79 80 79 78 77 76 75 73 72 72 72 72 72 72 73 73 73 74 74 75 75 75 75 75 75 74 75 75 75 75 74 73 71 70 69 68 67 67 67 67 67 67 66 66 67 68 69 69 70 71 72 73 74 74 74 75 76 76 76 76 76 76 75 74 74 74 74 74 75 75 77 79 79 79 80 81 81 81 83 83 83
78 79 80 80 80 79 78 77 76 75 73 72 71 71 71 71 71 72 72 72 72 73 74 74 74 75 74 74 74 74 74 74 74 72 71 69 68 67 67 67 67 67 66 66 66 66 66 67 67 68 69 69 70 71 72 73 73 73 73 74 74 75 75 75 75 75 75 74 74 74 75 75 75 76 78 80 80 80 81 82 81 81 82 84 84
78 79 79 79 78 77 77 76 75 74 72 71 71 71 71 71 71 71 71 71 72 72 73 73 74 74 73 73 73 73 73 72 70 69 67 67 66 66 66 66 66 66 65 65 65 66 66 67 67 68 68 69 70 71 71 72 72 72 72 73 74 74 75 75 75 75 76 75 75 75 76 76 75 77 78 79 80 81 82 83 82 81 82 83 83
77 77 77 76 76 76 76 75 74 72 72 71 71 71 70 70 70 70 71 71 72 72 72 73 73 72 72 72 72 72 70 68 67 66 65 65 66 66 66 65 65 64 64 64 65 65 66 66 66 67 67 68 69 70 71 71 71 71 72 73 74 75 75 76 76 76 76 76 75 75 76 75 75 77 79 80 81 83 83 84 83 82 82 80 78
75 74 74 74 74 74 73 73 72 71 70 70 70 69 69 69 70 70 71 71 71 71 71 71 71 71 71 71 70 68 67 65 64 64 64 65 65 64 64 63 63 63 64 64 64 64 65 65 65 66 67 68 69 69 70 70 71 72 73 73 74 75 76 76 76 76 77 76 75 75 76 75 76 78 80 81 83 84 84 84 82 81 79 76 73
73 74 74 74 74 73 72 71 70 69 69 69 69 69 69 69 70 70 70 70 70 70 70 70 70 70 69 68 67 65 64 63 63 63 64 64 64 63 63 63 63 63 63 63 63 63 64 64 65 66 67 67 68 69 70 71 72 72 73 74 75 76 76 77 77 76 76 76 76 76 76 77 77 79 81 82 83 83 82 80 78 76 74 71 68
75 76 75 74 73 71 70 69 69 68 68 68 68 68 68 69 69 69 68 69 69 69 69 69 68 68 66 65 63 62 61 62 62 63 63 63 63 63 62 62 62 62 62 62 62 63 63 64 65 65 66 67 68 69 70 72 73 74 74 75 75 75 76 76 76 77 77 77 77 77 77 79 79 79 80 82 81 79 76 74 72 71 69 66 64
76 75 73 71 70 68 68 67 67 67 67 67 67 67 67 67 67 67 68 68 68 68 67 67 66 64 63 61 60 60 60 61 61 62 62 62 62 62 61 60 60 61 61 61 62 62 63 64 65 65 67 68 69 70 72 73 74 74 75 75 75 75 76 76 76 77 78 78 78 78 78 79 79 78 79 79 76 72 70 69 68 67 65 63 61
72 70 68 67 66 65 65 65 65 65 65 65 65 65 66 66 67 67 68 67 67 66 64 63 62 60 59 58 58 59 59 60 60 60 60 61 61 61 60 59 59 59 60 60 61 62 63 64 65 66 67 68 70 71 72 73 74 75 75 75 75 75 75 75 76 78 79 79 79 78 77 77 77 76 75 73 70 67 67 67 65 64 62 60 58
66 64 63 63 63 62 62 62 63 63 63 64 64 65 65 66 66 66 65 64 63 62 60 59 57 56 56 57 57 57 57 58 58 58 59 59 60 60 59 58 58 59 60 61 61 62 63 64 65 66 67 69 71 72 73 74 75 75 75 76 75 75 75 75 76 78 79 79 79 78 77 76 75 72 69 67 67 66 66 65 61 60 58 57 56
61 60 60 60 60 60 61 61 61 61 62 62 62 63 63 64 64 63 62 61 59 58 56 55 55 55 55 55 55 55 56 56 57 58 58 59 59 59 59 59 59 60 61 62 62 63 64 65 66 67 68 69 71 72 74 75 75 75 75 75 75 75 75 75 77 78 78 78 78 78 76 74 72 67 64 64 64 65 64 61 58 57 56 55 54
57 57 57 57 58 58 59 59 59 59 60 60 61 61 61 61 61 60 58 57 55 54 54 53 53 53 53 53 53 54 55 56 57 57 58 58 58 59 59 60 60 61 62 63 63 64 65 66 67 68 69 70 71 72 74 75 76 75 75 75 75 74 74 75 76 77 78 78 78 77 76 72 68 64 62 62 62 62 61 58 56 56 56 54 53
56 56 56 56 56 57 57 58 58 58 59 59 59 59 59 58 57 56 54 53 52 52 51 51 51 52 52 52 53 54 55 56 57 57 58 58 59 59 60 61 61 61 62 63 64 64 65 66 67 68 69 70 71 72 73 75 75 75 75 75 74 73 73 75 77 77 78 78 77 77 74 69 65 62 61 61 60 59 58 57 56 56 55 54 53
56 56 57 57 57 57 57 56 56 58 59 58 57 56 55 54 53 52 51 50 49 49 49 50 50 51 52 52 53 54 55 56 57 57 57 58 59 60 60 61 61 62 62 63 64 65 66 66 67 68 69 70 71 72 72 74 75 75 74 74 73 72 74 76 77 77 77 76 75 73 70 65 63 62 60 59 58 58 58 57 57 56 54 53 53
59 60 60 60 60 59 58 57 57 58 58 56 54 53 52 51 50 49 48 47 47 48 49 49 50 51 52 52 53 54 55 56 57 57 58 59 60 60 61 61 62 62 63 64 65 65 66 67 67 68 69 70 71 72 72 73 74 74 74 73 73 74 76 77 76 76 75 74 71 67 64 61 61 60 60 59 58 57 58 57 57 56 55 53 52
62 62 62 61 61 60 59 58 58 57 55 53 51 50 49 48 47 47 46 46 47 48 49 50 50 51 52 53 54 54 55 56 57 58 59 60 60 61 62 62 63 63 64 64 65 66 66 67 67 68 69 70 70 71 72 72 73 73 73 74 74 75 76 76 75 73 71 69 65 62 60 60 60 59 59 59 58 58 57 57 57 56 55 54 52
62 61 60 58 57 56 56 55 54 52 50 49 48 47 46 46 46 46 46 47 48 49 50 50 51 51 52 53 54 55 56 56 57 58 59 60 61 62 62 63 64 64 65 65 65 66 66 66 67 67 69 69 70 70 71 71 72 72 73 74 75 75 75 74 72 70 68 65 61 58 58 58 58 58 58 58 58 58 58 57 57 56 55 54 53
58 56 54 53 53 52 51 49 48 47 47 46 45 45 45 45 45 46 47 48 49 50 50 51 51 52 53 54 55 56 56 57 58 59 59 60 61 62 63 64 64 65 65 66 66 66 66 66 66 67 68 68 69 69 69 70 71 72 73 74 74 74 73 72 70 67 65 62 58 57 57 57 56 56 56 56 57 57 57 57 57 57 56 55 54
50 49 48 49 49 48 46 44 43 43 43 43 43 43 44 45 46 47 48 49 49 50 51 51 52 53 53 54 55 57 57 58 58 59 60 61 62 63 64 64 65 66 66 66 66 67 67 66 66 66 66 66 67 67 68 69 70 71 71 72 72 72 71 69 67 65 62 59 57 57 57 56 55 54 54 55 55 56 56 56 57 57 57 57 56
42 42 43 44 44 43 41 41 40 41 41 42 43 43 44 45 47 47 48 49 50 50 51 52 53 53 54 55 56 57 58 58 59 60 61 61 63 64 65 65 66 66 66 67 67 67 67 66 66 65 65 65 65 66 67 67 68 68 69 69 68 68 67 65 64 62 59 57 56 56 56 56 55 55 54 55 55 55 55 55 56 57 58 58 58
38 38 39 40 40 39 39 39 40 41 42 42 43 44 45 46 47 48 49 49 50 51 52 53 54 54 55 56 56 57 58 59 60 61 62 63 64 65 65 66 66 67 67 67 67 67 67 66 66 65 65 65 65 65 65 65 66 65 64 64 63 62 61 60 59 58 56 56 55 56 56 56 56 56 56 56 56 55 55 55 55 56 57 59 60
36 37 37 38 38 39 39 40 40 41 42 43 44 44 45 46 47 48 49 50 51 52 53 54 55 55 55 56 57 58 59 60 61 62 63 64 65 65 66 66 67 67 67 67 67 67 66 66 65 65 64 64 64 63 63 63 63 62 60 59 57 56 56 55 55 54 54 54 54 54 55 55 55 56 56 56 56 57 57 56 56 56 57 59 60
36 36 37 38 39 39 40 40 41 42 43 43 44 45 46 47 48 49 50 51 52 52 53 54 55 56 57 58 58 59 60 61 63 64 65 65 66 66 66 67 67 68 68 68 67 67 66 66 65 64 64 63 62 62 61 61 60 58 57 55 53 52 52 52 52 52 52 52 53 53 54 55 55 56 57 57 57 58 59 59 59 58 58 59 59
38 38 39 39 40 40 41 41 42 43 43 44 45 46 47 47 48 49 51 52 52 53 54 55 57 58 58 59 60 61 62 63 64 65 66 67 67 67 67 67 67 67 68 68 68 67 66 65 64 63 63 62 61 61 60 58 57 55 54 52 52 51 51 51 51 52 52 53 53 54 55 56 56 57 58 58 58 59 60 61 61 61 60 60 59
40 40 40 41 41 41 42 42 43 43 44 44 45 46 48 48 49 50 50 51 52 54 55 57 59 60 61 62 62 63 64 65 65 65 66 67 68 68 68 68 67 67 67 67 67 66 65 64 62 62 61 61 60 59 58 56 55 53 52 51 51 51 52 52 52 53 53 54 54 54 55 56 56 57 58 58 59 59 60 61 62 63 63 62 61
41 41 41 41 41 42 42 43 43 44 44 45 46 46 47 48 49 50 51 52 54 56 58 60 61 63 64 65 65 66 67 67 67 67 68 68 69 69 68 68 67 67 67 66 66 64 63 62 60 59 59 58 57 56 54 53 52 51 51 51 51 51 52 52 52 53 54 54 54 55 55 56 56 57 57 58 58 59 60 61 62 63 63 64 63
41 41 41 41 41 42 42 42 43 43 44 45 45 46 46 47 49 51 53 55 57 59 61 63 64 65 66 67 68 68 68 69 69 70 70 70 70 69 68 67 67 66 66 65 64 63 62 60 59 58 57 56 55 53 51 50 50 50 49 49 49 50 51 52 52 53 54 55 55 56 56 57 57 58 58 59 59 60 61 62 63 64 65 65 65
40 40 40 40 40 41 41 42 42 43 44 44 45 46 47 49 50 52 55 57 60 62 64 66 67 68 68 69 70 70 70 70 71 71 71 71 71 69 67 66 66 66 65 63 62 61 59 58 58 57 57 55 53 51 50 49 49 48 48 48 48 49 50 51 53 54 55 56 57 58 59 60 60 61 62 62 63 64 64 65 66 67 67 68 68
38 38 38 39 39 40 41 41 42 43 44 45 46 48 50 52 54 56 57 59 61 63 65 68 69 70 71 71 71 71 71 71 71 71 71 71 70 68 66 66 65 64 63 62 61 59 57 56 56 55 54 53 51 50 49 49 48 48 49 49 50 51 52 53 55 56 57 59 60 61 62 63 64 65 65 66 67 67 68 69 70 71 71 72 72
37 37 37 38 38 39 40 41 42 43 45 47 49 51 53 55 57 59 60 62 63 64 66 68 70 72 73 73 72 72 71 71 70 70 70 70 69 67 65 64 63 62 61 60 59 58 56 55 54 53 51 50 49 48 48 48 49 49 50 51 52 54 55 56 58 59 60 61 62 63 64 65 66 67 68 68 69 70 71 72 73 73 74 75 76
35 35 36 36 37 39 41 42 44 46 48 50 52 54 56 58 59 61 62 64 65 66 67 69 70 71 73 74 74 73 72 70 69 69 68 68 67 65 63 62 60 59 58 57 57 56 55 54 52 50 48 47 47 47 48 49 49 50 52 54 55 56 58 59 60 62 62 63 64 65 66 67 68 69 70 71 72 73 74 75 75 76 77 78 78
34 35 36 37 39 41 43 45 47 49 51 52 54 56 57 59 61 62 64 66 67 69 70 71 72 72 73 73 73 72 71 70 68 67 67 65 64 63 61 60 58 56 55 54 54 53 52 51 48 46 45 45 46 47 48 50 51 53 55 57 58 59 60 61 63 64 65 66 67 68 69 70 71 72 73 74 75 76 77 78 78 79 79 80 80
35 36 38 40 42 44 46 47 49 51 52 54 56 57 59 61 63 64 66 68 69 71 71 72 72 72 72 71 71 70 68 66 65 63 63 62 60 59 58 56 55 53 52 50 49 48 47 45 44 44 44 45 47 48 50 52 54 56 58 59 60 61 63 64 65 66 68 69 70 71 72 73 74 75 75 76 76 77 78 78 78 79 79 79 79
37 39 41 42 44 46 47 49 50 52 54 55 57 59 61 63 64 66 67 68 69 70 70 70 69 69 68 67 66 64 62 60 58 57 56 55 54 53 51 50 48 46 45 44 43 42 41 41 42 44 46 47 49 51 53 54 56 58 59 61 62 64 65 67 68 69 70 71 72 72 73 73 73 73 73 73 74 74 75 75 76 76 76 76 77
40 41 42 44 45 47 48 50 51 53 55 56 58 60 62 63 65 65 65 66 66 65 65 65 63 62 60 58 56 54 52 49 48 46 45 45 44 43 42 41 39 38 37 37 37 37 38 40 43 45 48 50 51 53 55 56 57 59 61 63 64 66 67 68 68 68 68 69 69 68 69 69 69 69 70 70 71 71 72 73 74 74 75 75 75
40 42 44 45 46 48 49 51 52 54 56 58 59 61 61 61 61 61 60 60 60 58 56 54 51 49 46 44 42 40 38 36 35 34 33 33 33 32 32 32 31 31 32 33 35 37 40 42 45 47 49 51 52 54 56 57 59 61 63 64 65 65 65 65 64 64 64 64 65 65 66 67 67 68 69 70 70 71 72 72 73 73 74 74 74
41 43 44 46 47 49 50 52 53 55 57 58 58 57 57 56 55 54 53 52 49 47 43 40 37 35 33 31 30 28 27 26 25 24 23 23 23 24 25 26 27 29 31 34 37 39 42 44 46 47 49 51 53 55 57 59 60 61 61 61 61 60 60 60 61 61 61 62 63 64 66 66 67 68 68 69 70 70 70 70 70 69 69 69 70
42 43 45 46 48 50 51 52 54 55 55 54 53 52 51 50 48 47 45 42 39 36 33 30 28 26 25 24 23 22 21 20 19 18 19 19 21 22 25 27 29 32 34 36 38 40 42 44 46 47 50 52 54 57 58 58 58 58 57 57 56 56 57 58 58 59 60 61 63 63 64 64 65 64 64 64 64 63 63 63 62 62 61 61 61
43 44 46 47 49 50 51 53 53 52 51 50 49 47 45 44 42 39 37 34 31 29 26 24 22 21 20 20 19 19 19 19 19 20 21 22 24 26 28 30 32 34 35 37 39 41 42 44 47 49 52 54 55 56 56 55 54 53 53 53 53 53 54 56 57 58 59 60 60 60 60 59 58 57 56 55 55 54 54 54 53 53 53 53 52
43 45 46 47 49 50 51 52 51 49 47 46 43 41 40 38 36 33 31 28 26 24 22 20 20 19 19 19 19 20 20 21 22 24 25 26 27 29 30 31 33 35 36 38 40 42 44 46 49 51 53 54 54 53 52 52 51 51 50 50 51 51 53 54 55 56 56 55 54 53 52 50 49 48 48 47 47 46 46 46 46 46 45 45 44
44 45 46 47 48 50 51 49 47 45 44 41 39 37 35 33 31 29 27 24 22 20 19 18 18 18 19 20 21 22 23 24 25 26 27 27 28 30 31 33 34 36 38 40 42 44 46 48 51 53 53 52 51 50 49 49 48 48 48 48 49 50 51 52 51 51 49 48 46 45 43 42 42 41 40 40 39 38 38 38 38 37 37 36 35
44 45 46 47 48 50 49 46 44 42 40 37 35 33 32 30 28 25 23 21 19 18 17 17 18 19 20 22 23 24 25 25 26 27 28 29 30 31 33 34 36 38 40 42 44 46 48 50 52 51 50 49 48 48 47 46 45 45 45 47 48 48 48 47 46 44 42 40 38 37 36 36 35 34 33 32 30 29 29 28 28 28 27 25 25
44 45 46 47 49 49 46 43 41 39 37 34 32 30 29 27 25 23 21 19 18 17 17 18 19 20 22 24 25 25 26 27 27 28 29 30 31 33 34 36 38 40 42 44 45 47 50 51 50 49 48 47 46 45 44 43 42 43 44 45 45 45 44 42 39 36 34 33 32 31 30 29 28 26 25 23 22 21 20 19 19 18 17 16 16
44 45 46 47 48 47 44 40 38 37 34 32 30 28 27 25 23 21 20 19 19 18 18 19 20 22 23 25 26 27 28 28 29 30 31 32 33 34 36 37 39 41 43 45 47 49 50 49 48 47 46 45 43 42 41 40 40 41 41 42 42 41 38 35 32 30 29 27 26 25 24 23 21 19 18 16 15 13 12 11 10 9 9 9 8
44 45 46 47 47 45 41 38 36 35 32 30 28 26 25 24 23 21 20 20 19 19 19 20 21 22 24 26 27 28 29 30 31 31 32 33 34 35 37 39 41 43 45 46 48 49 49 47 46 45 44 42 40 39 38 38 38 38 39 39 38 36 33 30 27 25 24 23 21 20 18 17 15 13 11 10 8 6 5 4 3 2 1 2 2
Wind_Direction
285 284 284 285 285 286 286 286 286 287 286 287 287 287 286 285 285 283 283 283 283 283 284 284 284 284 284 284 284 283 282 282 282 282 282 282 281 281 281 281 280 280 279 278 277 276 276 276 276 275 275 275 275 275 275 275 275 275 275 275 276 276 276 276 275 274 274 274 273 273 273 273 273 273 272 272 272 271 271 270 269 269 268 267 267
284 283 283 284 284 284 285 285 285 286 286 286 286 286 286 285 285 284 284 284 284 284 284 283 283 283 284 284 284 283 282 282 281 281 281 281 281 280 280 280 279 278 277 277 276 276 275 275 275 275 275 275 275 275 275 275 275 276 276 276 276 276 276 276 276 275 274 274 274 274 273 273 272 272 272 272 272 272 271 271 270 269 269 268 267
283 283 283 283 284 284 284 285 285 286 286 286 286 286 285 285 284 284 284 284 284 284 283 283 283 283 284 284 283 282 282 281 281 281 281 281 281 280 280 279 278 278 277 276 276 275 275 275 275 275 275 275 275 276 276 277 277 277 277 277 277 277 277 277 276 276 275 274 274 274 274 273 273 273 272 272 272 271 271 271 271 270 269 269 268
282 282 282 282 283 283 284 284 285 285 285 285 285 285 284 284 283 283 284 283 283 283 283 283 284 284 284 283 283 282 281 281 281 281 281 281 280 280 279 279 278 277 276 276 275 274 274 274 274 275 275 275 276 277 277 278 278 278 278 278 278 277 277 277 277 277 276 276 275 275 274 274 274 273 273 272 272 272 272 272 272 271 271 270 270
281 281 282 282 282 283 283 284 284 284 285 285 284 283 283 283 283 283 283 283 283 284 284 284 284 284 283 283 282 281 281 281 281 281 281 280 280 279 278 278 277 276 275 274 273 273 274 274 275 275 276 277 277 278 278 278 278 278 278 278 278 278 278 278 277 277 277 276 276 275 275 275 274 274 274 274 273 273 273 273 273 273 272 272 272
281 281 281 282 282 282 282 282 283 284 284 284 283 283 283 283 283 283 284 284 284 284 284 284 283 283 282 282 281 281 280 280 280 280 280 280 279 278 277 276 274 273 273 273 273 274 274 275 275 276 277 277 278 278 278 278 278 279 279 279 279 278 278 278 277 277 277 277 276 276 276 276 276 276 276 275 275 275 275 274 274 274 274 274 274
280 281 281 281 281 281 281 282 283 284 284 283 283 283 283 283 284 284 284 284 283 283 283 282 282 281 281 280 280 279 279 280 280 280 279 278 277 276 275 274 273 273 273 273 274 274 275 276 276 277 277 278 278 278 278 278 279 279 279 278 278 277 277 277 277 277 278 278 278 277 277 277 277 277 277 276 276 276 276 275 275 275 276 275 275
280 280 280 280 281 281 282 283 284 284 283 283 283 283 283 283 283 283 283 283 283 282 282 281 281 280 280 279 279 279 280 280 280 279 278 276 275 274 273 273 273 273 273 274 274 275 276 276 277 277 277 277 278 278 278 278 278 278 278 277 277 277 277 278 278 279 279 279 279 278 278 278 278 278 278 277 277 277 277 276 276 276 276 276 276
280 280 281 281 281 282 284 284 285 284 283 283 284 284 284 283 283 283 283 282 282 281 281 280 280 279 279 279 279 280 280 279 278 277 275 274 273 273 273 273 273 274 274 275 275 276 276 277 277 277 277 277 278 278 278 278 277 277 277 277 277 278 278 279 279 279 279 279 279 279 279 279 279 279 279 278 278 278 277 277 277 276 276 276 276
280 281 282 283 284 285 285 285 285 284 284 284 284 284 284 284 283 283 283 282 281 281 280 280 279 279 279 280 280 280 279 278 276 275 274 273 273 273 273 274 274 274 275 276 276 276 277 277 277 278 278 278 278 278 278 278 278 278 278 278 278 279 279 279 280 280 280 280 280 280 279 280 280 280 280 280 279 279 278 278 277 277 276 276 275
281 283 284 286 286 287 286 286 285 285 284 284 284 284 284 284 283 283 282 281 281 280 280 279 279 280 280 280 280 279 278 276 275 274 274 274 274 274 274 274 274 275 275 276 276 277 277 278 279 279 279 279 279 279 279 278 278 279 279 279 279 279 280 280 280 280 280 280 280 280 280 281 281 281 281 280 280 279 278 278 278 277 276 275 273
283 285 287 287 287 286 286 285 285 285 285 285 284 284 284 284 283 282 281 281 280 280 279 280 280 280 280 279 278 277 276 275 274 274 274 274 274 274 274 274 275 275 276 277 277 278 279 280 280 280 280 280 280 279 279 279 279 279 279 279 279 280 280 280 280 280 280 280 280 281 281 282 282 282 282 281 280 279 279 278 276 275 274 273 272
286 287 287 287 286 285 285 285 285 285 285 285 284 284 283 283 282 281 280 280 279 280 280 280 280 279 279 277 276 275 274 274 274 275 275 275 274 274 274 275 275 276 277 278 279 280 281 281 281 281 281 281 281 280 280 280 280 280 280 280 280 280 281 281 281 281 281 281 281 281 282 282 282 282 282 281 280 279 277 276 274 273 273 272 271
287 287 286 285 285 285 284 284 284 284 284 283 283 282 282 281 281 280 280 280 280 280 280 279 279 278 277 275 274 274 274 275 275 275 275 275 275 274 274 275 276 278 279 280 281 281 281 282 282 282 282 282 282 281 281 281 280 280 280 281 281 281 281 281 281 281 281 281 281 282 282 282 282 282 281 280 278 277 275 274 273 272 271 270 270
286 285 285 284 284 284 283 283 282 282 282 281 281 281 280 280 280 280 280 280 280 280 279 278 277 276 275 275 275 275 275 275 275 275 275 275 275 276 276 276 278 279 280 281 282 282 282 282 283 283 283 283 282 282 282 281 281 281 281 281 281 281 281 281 281 281 281 281 281 281 281 282 282 282 280 277 276 275 274 274 272 271 270 269 269
285 284 284 283 282 282 281 281 281 280 280 280 280 280 280 280 280 280 280 279 279 278 277 276 276 275 275 275 275 276 276 276 276 276 276 276 277 277 278 279 280 281 281 282 282 282 283 283 283 283 284 284 283 283 282 282 282 282 282 282 282 281 281 281 281 281 281 281 282 282 282 282 281 279 276 275 275 275 274 272 270 269 268 268 268
284 283 282 282 281 281 281 280 280 279 279 279 279 280 280 280 280 280 279 278 278 277 276 275 275 275 276 276 276 276 276 276 276 277 277 278 278 280 281 281 282 282 283 283 283 284 284 284 284 284 284 284 284 284 283 283 282 282 282 282 282 281 282 281 281 281 281 282 282 282 282 281 279 276 273 273 273 273 272 271 269 267 266 266 267
282 282 282 282 281 281 280 280 279 279 279 280 280 280 280 280 280 279 278 277 277 276 276 276 276 276 276 276 276 277 277 277 278 278 279 280 281 282 282 283 283 284 284 284 285 285 285 285 285 285 285 285 284 284 284 283 283 283 282 282 282 282 282 282 282 282 282 282 282 282 281 279 276 272 271 272 272 271 270 268 266 265 265 265 265
282 282 282 282 281 281 280 280 280 281 281 281 281 281 281 280 279 278 277 276 276 276 276 276 277 277 277 278 278 278 279 279 280 280 281 282 282 283 283 284 285 285 285 285 285 285 286 286 286 286 286 285 285 284 284 283 283 283 283 282 282 283 283 283 282 283 282 282 281 281 280 277 273 271 271 271 270 269 266 264 262 263 264 265 265
281 281 282 282 281 281 281 281 282 283 282 282 281 281 281 280 278 277 276 276 276 276 277 277 278 278 279 279 279 280 280 281 281 282 282 283 283 284 284 285 285 286 286 286 286 286 287 287 287 287 287 286 285 284 284 284 284 283 283 283 284 284 283 283 282 282 281 280 280 279 277 274 272 272 271 270 268 265 264 262 262 262 262 263 264
282 282 281 281 280 280 280 281 282 282 281 280 280 280 279 278 277 276 276 276 277 277 277 278 278 279 279 280 280 281 281 282 282 283 283 283 284 284 285 285 285 286 286 286 287 287 288 288 288 288 287 287 286 285 284 284 284 284 284 284 284 284 283 283 282 281 280 280 279 276 272 270 271 271 271 269 267 265 263 263 263 263 262 262 261
281 280 280 279 279 279 279 280 281 281 279 278 278 278 277 277 276 277 277 277 278 278 278 278 279 279 280 280 281 281 282 282 283 284 284 285 285 286 286 286 286 286 287 287 288 289 289 289 289 288 288 287 286 286 285 285 284 284 285 285 285 284 284 283 282 281 279 278 275 271 268 268 269 270 269 269 268 266 264 263 263 263 263 263 262
280 280 280 280 281 281 280 280 280 280 279 278 278 277 277 277 277 277 278 278 278 279 279 279 280 281 281 282 282 282 283 284 284 285 285 286 286 287 287 287 288 288 288 289 289 290 290 290 290 289 288 288 287 287 286 286 286 285 286 286 285 285 284 283 281 279 278 275 270 266 265 267 268 268 268 267 266 266 265 264 264 263 263 263 263
281 281 282 282 282 281 279 278 278 279 279 278 277 277 277 277 278 278 278 279 279 280 280 281 281 282 282 283 283 284 284 284 285 285 286 286 287 288 288 289 289 290 290 290 290 290 290 290 290 289 289 289 288 287 287 286 286 286 286 286 286 285 284 282 280 278 276 272 267 263 264 266 266 266 266 265 265 265 265 264 264 264 263 263 262
283 283 283 283 282 280 278 278 279 279 279 279 279 279 279 279 279 280 280 280 281 281 281 282 282 283 283 284 284 285 285 285 285 286 286 287 288 288 289 290 290 291 291 291 291 291 291 291 290 290 290 289 288 287 287 286 286 287 287 287 286 285 283 281 279 277 274 270 266 265 265 266 265 263 262 261 262 262 263 263 264 264 264 263 263
286 286 285 284 282 280 280 280 280 281 281 281 281 281 281 281 281 281 282 282 282 282 283 283 283 284 284 285 285 285 286 286 286 287 287 288 288 289 290 290 291 292 292 292 292 292 292 292 291 291 290 289 288 287 287 287 287 288 288 287 286 284 283 281 278 276 273 269 267 267 267 267 266 263 261 259 259 259 260 261 261 262 264 264 264
290 289 287 285 284 283 283 283 283 283 283 283 283 283 283 283 283 283 283 283 283 283 283 284 284 284 285 285 285 286 286 287 288 288 289 289 289 290 291 291 292 292 292 292 292 292 292 292 292 292 291 289 289 288 288 288 289 289 288 287 285 283 281 279 277 274 272 269 268 268 268 267 267 266 264 262 260 259 259 259 260 261 262 263 263
291 290 289 288 287 286 286 285 285 285 285 285 284 284 284 284 284 284 284 284 284 284 284 284 284 285 285 285 286 287 287 288 289 289 290 290 290 291 292 292 292 292 292 292 292 293 293 293 293 292 291 290 290 290 290 290 289 288 287 285 283 281 279 277 276 274 272 270 269 269 269 268 268 267 266 265 263 261 260 260 259 259 260 261 262
290 290 289 289 288 288 288 287 287 287 286 286 285 285 285 284 284 284 284 284 284 285 285 285 285 286 286 287 287 288 289 289 290 290 290 290 290 291 292 292 292 292 293 293 293 293 294 294 293 293 292 291 291 290 290 289 289 287 286 283 281 279 278 277 276 274 273 272 271 271 270 270 269 268 267 266 265 264 263 262 261 260 260 260 261
290 290 289 289 289 289 289 289 288 288 287 286 286 285 285 285 285 285 285 286 286 286 286 286 287 287 288 288 288 289 289 289 290 291 291 291 291 291 291 292 292 293 293 293 293 294 294 294 294 293 292 291 291 290 289 288 287 285 283 281 279 278 277 277 276 275 275 274 273 272 272 271 270 269 268 268 267 266 265 265 264 263 262 262 261
291 291 291 290 290 290 290 289 288 287 287 286 286 287 287 286 286 286 287 287 287 288 288 288 288 288 289 289 289 289 289 289 290 290 290 291 291 291 292 292 293 293 293 293 293 294 294 294 293 293 292 291 291 290 289 287 286 284 282 280 279 278 277 276 276 276 275 275 274 273 273 272 271 270 270 269 268 267 267 266 266 265 265 264 263
292 292 292 291 291 290 290 289 288 287 287 287 287 288 288 288 289 289 289 289 289 289 289 290 290 290 290 290 290 290 290 290 290 290 289 290 290 291 292 293 293 293 293 293 293 293 293 293 292 291 290 290 289 288 287 286 285 284 283 283 282 281 281 280 279 278 277 276 276 275 274 273 272 271 271 270 269 268 268 268 267 267 266 266 265
293 292 292 291 291 290 289 289 289 289 289 289 290 290 290 290 291 291 292 292 291 291 291 290 290 290 290 290 290 290 290 290 290 290 289 289 290 291 292 292 292 292 292 293 293 293 292 291 291 290 289 288 286 284 283 282 281 281 282 282 282 282 282 282 281 281 280 279 278 277 277 276 275 274 273 272 271 270 269 269 268 267 267 267 266
292 292 291 291 291 291 291 291 291 292 292 292 292 292 292 292 292 292 292 292 292 292 292 292 291 291 291 291 291 291 291 291 290 290 290 290 290 291 292 292 292 292 292 292 292 292 291 290 290 289 288 287 285 283 281 280 279 279 279 279 279 279 279 279 278 278 278 278 277 277 277 276 275 275 274 273 272 272 271 270 269 269 268 267 267
292 293 293 293 293 294 294 294 294 294 294 294 294 293 293 293 293 293 292 292 292 292 293 293 292 292 291 291 291 291 291 291 291 291 291 291 291 291 292 292 292 292 292 291 291 291 290 289 289 289 287 285 284 283 282 281 281 281 280 280 280 279 279 278 277 277 276 276 275 275 275 274 274 273 273 273 272 272 271 271 270 270 270 269 268
295 295 295 295 296 296 296 296 296 296 296 296 295 295 295 295 294 294 294 293 292 292 292 291 292 292 291 291 291 291 291 291 290 290 290 290 291 291 291 291 292 292 292 292 291 291 290 290 289 288 286 283 282 282 282 282 281 281 281 281 281 281 280 280 279 278 277 277 276 275 274 273 273 273 272 272 271 271 270 270 270 270 270 269 269
297 297 297 297 297 297 298 298 298 298 297 297 297 296 296 296 295 295 294 294 293 292 292 291 291 291 291 291 291 291 290 290 290 290 290 290 290 291 291 291 291 291 291 291 291 291 291 291 290 288 286 284 283 283 282 282 282 282 283 283 283 282 282 282 281 280 279 279 278 277 276 275 274 273 272 272 271 271 270 270 270 269 269 268 268
299 299 300 300 300 300 300 300 300 299 299 298 298 297 297 297 296 296 295 295 294 294 293 293 292 291 291 291 291 290 290 290 289 289 289 289 290 290 291 291 291 291 291 291 291 291 291 291 290 288 286 285 285 285 285 285 285 286 286 286 285 285 284 284 283 282 281 280 279 278 277 276 276 275 274 273 272 272 271 270 270 269 269 268 268
302 302 302 302 302 301 301 301 301 301 300 300 300 299 299 298 298 298 298 297 297 296 295 295 294 293 292 291 291 290 290 289 289 289 289 289 289 290 290 291 291 292 292 292 292 292 291 291 290 289 288 287 287 287 288 288 288 288 288 288 287 287 286 285 284 284 283 282 281 280 279 278 277 276 275 274 274 273 272 271 270 270 269 269 268
304 303 303 303 303 303 303 303 303 302 302 302 302 301 301 301 301 300 300 299 299 298 297 296 295 294 293 292 292 291 290 290 289 289 289 289 289 290 291 292 292 293 293 293 293 293 292 291 291 291 291 291 291 291 291 291 291 290 290 290 289 288 288 287 286 285 284 283 282 281 280 279 278 277 276 275 274 274 273 272 271 270 270 269 268
305 305 305 305 306 306 305 305 305 304 304 304 304 304 304 304 303 303 302 302 301 300 299 299 298 297 296 295 295 294 294 293 292 291 291 291 291 292 293 294 295 295 295 295 295 294 294 293 293 294 294 294 293 293 293 293 292 292 291 291 290 290 289 288 287 286 285 284 283 282 281 280 279 278 277 276 275 274 273 272 272 271 270 270 269
307 308 308 308 308 308 307 307 307 307 307 307 307 307 306 306 306 306 306 305 305 305 304 304 304 303 303 303 303 302 302 300 299 297 296 295 295 295 296 297 297 297 297 297 297 297 296 296 296 296 295 295 295 295 294 294 294 293 293 292 292 291 290 289 288 287 287 286 285 283 282 281 280 279 278 277 276 275 274 273 272 272 271 270 270
310 310 310 310 310 310 310 310 310 310 310 310 309 309 309 309 310 310 311 311 312 312 313 314 315 315 316 316 316 315 314 312 311 309 307 305 304 303 303 302 302 301 301 300 299 299 299 298 298 298 298 298 298 297 297 297 296 295 295 294 293 293 292 291 290 289 288 287 286 285 284 283 281 280 279 278 277 276 275 274 273 272 271 270 270
311 311 312 312 312 312 312 312 312 312 312 312 312 312 313 314 315 317 318 320 322 324 327 329 331 331 331 331 331 331 331 329 328 325 322 319 316 314 311 309 307 306 305 304 303 303 302 302 301 301 301 301 301 300 300 299 298 297 297 296 295 295 294 293 292 291 290 289 287 286 285 284 283 281 280 279 278 277 276 275 273 272 271 270 269
313 314 314 314 314 314 314 314 315 315 314 315 315 316 317 319 322 324 327 329 333 336 339 342 345 346 346 347 347 346 344 342 338 334 329 324 320 317 314 312 311 310 309 308 307 307 306 306 306 306 305 305 304 303 302 301 300 300 299 298 297 297 296 295 294 293 292 291 289 288 287 285 284 283 282 281 279 278 277 276 274 273 272 270 269
316 316 316 316 316 316 317 317 317 317 317 317 318 319 322 324 327 330 333 336 340 344 348 351 354 356 356 354 352 348 344 340 335 330 326 323 320 318 317 316 315 314 313 312 311 311 310 310 310 310 309 308 307 306 305 304 303 303 302 301 301 300 300 299 298 296 295 293 292 290 289 288 287 286 284 283 282 280 279 277 276 274 272 271 269
318 318 318 318 318 319 319 320 320 319 319 319 320 322 325 328 330 332 335 338 342 346 350 354 355 355 353 350 347 343 338 334 331 328 326 324 323 321 320 319 319 318 317 316 315 315 314 314 314 313 312 311 310 309 308 307 307 307 306 306 305 305 304 303 301 300 298 296 295 294 293 291 290 289 287 286 284 282 280 279 277 275 273 271 269
319 319 319 320 321 321 321 321 321 320 320 321 322 324 326 329 330 331 333 336 340 343 346 347 348 348 347 344 341 338 335 333 331 329 328 327 326 325 324 323 322 322 321 320 319 318 318 317 317 316 314 313 313 312 311 311 310 310 310 310 310 310 309 307 306 304 302 301 299 298 297 296 294 293 291 289 287 285 283 281 279 277 275 271 268
321 321 321 322 323 323 322 322 322 321 321 321 323 324 325 327 328 328 328 331 334 336 338 341 343 343 342 340 338 336 335 334 333 332 331 329 328 327 326 325 325 324 324 323 322 321 321 320 319 318 317 317 316 315 315 314 314 315 315 316 316 315 314 313 311 309 308 306 305 304 303 302 301 299 297 295 292 289 286 283 280 277 273 268 263
322 322 323 324 325 324 323 322 322 321 321 321 322 323 323 324 324 324 324 325 328 330 333 337 338 338 337 337 336 336 335 335 334 333 332 331 330 329 328 328 327 327 327 326 325 324 323 323 322 321 320 320 319 318 318 318 319 320 321 321 322 321 320 319 318 317 316 315 314 313 312 311 310 308 306 303 300 296 292 287 282 277 271 263 256
323 324 325 326 326 324 323 322 322 322 321 321 322 322 321 322 321 321 321 322 323 326 329 332 332 332 333 334 335 335 335 335 334 334 333 332 331 331 330 330 329 329 329 328 327 326 326 325 324 324 323 323 322 321 322 323 324 325 327 328 329 329 329 328 328 327 326 326 325 325 325 325 324 324 324 323 321 320 318 312 305 295 263 220 199